User: anonymous   Login
Location: Unspecified
(0.0000°N, 0.0000°E)
Time: 20:20:49
(UTC+00:00)
Language:

APRIZESAT 1 (LATINSAT C) - Orbit

View from above orbital plane
View from above orbital plane
View from above satellite
View from above satellite

Ground track
Ground track

The orbit data is extracted from the following two-line orbital elements,

1 28372U 04025G   18264.81439541 -.00000014 +00000-0 +80492-5 0  9993
2 28372 098.3079 209.6803 0047431 117.1058 243.4985 14.49559560752399
Epoch (UTC): 21 September 2018 19:32:43
Eccentricity: 0.0047431
inclination: 98.3079°
perigee height: 693 km
apogee height: 761 km
right ascension of ascending node: 209.6803°
argument of perigee: 117.1058°
revolutions per day: 14.49559560
mean anomaly at epoch: 243.4985°
orbit number at epoch: 75239

The dashed part of the orbit path shows where the satellite is in the earth's shadow,  

DLR